MyTimes logo

TIMES

Webb Imagery

16/02/2002
Channel Challenge
550m Swim / 2.0km Run

(Click on competitor name to view personalised results)

Name
Race #
Category
Time
(mm:ss.t)
Avg Speed
km/hr
OAll
Place
Cat
Place
HARRIS Robert#1367Mens Snr11:32.9 11
WISSE VAN WISSE John#1366Mens Snr11:53.7 22
BIRCH Andrew #1034Mens Jnr12:19.0 31
ARMSTRONG Graeme#231Mens 40+12:32.3 41
COOPER Brett#1001Mens Jnr12:44.1 52
EVANS Brad#1318Mens Snr12:51.2 63
REID Penny#1460Womens Snr12:56.4 71
VELLIN Marc#1377Mens Snr13:07.4 84
LENNE Heath#1024Mens Jnr13:08.3 93
MACKEY Nick#1267Mens Snr13:08.8 105
WALLER Mark#1295Mens Snr13:10.4 116
FORD Brenton#1023Mens Jnr13:17.4 124
GOGOLL Damien#1344Mens Snr13:17.8 137
HOLLINS Peter#1220Mens Snr13:18.9 148
PANEBIANLO Leigh#1345Mens Snr13:29.4 159
DESSENT Michael (Tiger)#1307Mens Snr13:31.4 1610
ROBERTS Sean#1030Mens Jnr13:32.9 175
HENTSCHEL Vanessa#1435Womens Snr13:37.5 182
PAGE Tiger#1207Mens Snr13:37.7 1911
PANTON David#2203Mens 40+13:43.0 202
ALEXANDER Ingrid#1483Womens Snr13:48.6 213
SMITH Steven#1025Mens Jnr13:53.2 226
NORMAN Jeff#2207Mens 40+14:03.5 233
TAYLOR Paul#1289Mens Snr14:06.8 2412
YUSKO Bill#217Mens 40+14:09.9 254
GALBRAITH Dana#2218Mens 40+14:12.0 265
THORNBORROW John#1352Mens Snr14:13.2 2713
WACHTER Aurel#1316Mens Snr14:15.4 2814
NAK Rodney#1378Mens Snr14:18.7 2915
DALLINGER Chris#1212Mens Snr14:20.5 3016
JOHNSON Glen#2204Mens 40+14:20.8 316
FORD Courtney#261Womens Jnr14:23.7 321
NEWTON Rodney#1274Mens Snr14:25.6 3317
YUSKO Daniel#1382Mens Snr14:26.3 3418
PUGH Tim#1282Mens Snr14:27.3 3519
REID Karina#1506Womens Snr14:33.4 364
HANLEY Brendan#1033Mens Jnr14:33.6 377
SPOTTISWOOD James#1388Mens Snr14:39.8 3820
BATTYE Trent#1239Mens Snr14:41.2 3921
LOCK Paul#1324Mens Snr14:42.4 4022
MOUNSEY Barny#241Mens 40+14:45.5 417
COWELL Darren#1246Mens Snr14:47.8 4223
REID Jason#1283Mens Snr14:51.3 4324
OGILVY Hamish#1321Mens Snr14:52.7 4425
OGILVY Angus#1322Mens Snr14:54.1 4526
FLEISNER Rob#201Mens 40+14:55.9 468
CAPLE Alex#1039Mens Jnr14:56.9 478
GRAHAME Sarah#253Womens Jnr14:58.0 482
MASON Nick#1007Mens Jnr14:58.8 499
O'CONNELL Sarah#1455Womens Snr15:02.2 505
BRUCE Stephen #1244Mens Snr15:08.0 5127
O'DONNELL Louise#1456Womens Snr15:12.3 526
SPEED Hayden#1334Mens Snr15:13.7 5328
CROFT Gregory#303Mens 40+15:18.4 549
HARRISON Derek#1209Mens Snr15:19.7 5529
QUILLFORD Reese#1233Mens Snr15:20.8 5630
PITTS Graeme#305Mens 40+15:22.1 5710
GARRETT Geoff#1217Mens Snr15:22.4 5831
HOGHTON Daniel#1226Mens Snr15:25.8 5932
WEIR Jake#1008Mens Jnr15:27.5 6010
MARSHALL Luke#1229Mens Snr15:28.4 6133
MCHENRY David#1006Mens Jnr15:34.5 6211
OLIVER Scott#1350Mens Snr15:37.1 6334
RYAN Matthew#1285Mens Snr15:38.3 6435
NORMAN Rick#1355Mens Snr15:39.7 6536
ELLARD Shane#1251Mens Snr15:43.1 6637
NICHOLSON Steven#1353Mens Snr15:44.9 6738
JUDD Gary#210Mens 40+15:45.9 6811
PATERSON Jemma#263Womens Jnr15:46.6 693
INNES Chris#1260Mens Snr15:50.0 7039
FORD Penny#1431Womens Snr15:55.1 717
VOS Howard#1308Mens Snr15:55.2 7240
ARMSTRONG Aleisha#258Womens Jnr15:55.2 734
FISHER Kevin#1211Mens Snr15:55.6 7441
MCGEOCH Laura#1449Womens Snr15:59.5 758
PATTON Craig#300Mens 40+16:00.9 7612
MAYERS Stuart#1330Mens Snr16:01.0 7742
MOSSE Peter#306Mens 40+16:02.0 7813
WHITMORE Luke#1397Mens Snr16:02.1 7943
BENNETT Nick#1241Mens Snr16:02.2 8044
HARRIS Mark#1257Mens Snr16:03.6 8145
TRELOAR Jon#1291Mens Snr16:03.9 8246
HUNTER Robyn#1507Womens Snr16:05.5 839
LAMARO Christian#1383Mens Snr16:06.1 8447
BOROMEO Gavin#1242Mens Snr16:07.4 8548
WILLIAMSON Allistair#1399Mens Snr16:08.0 8649
EVANS Bree#250Womens Jnr16:08.1 875
MASON John#218Mens 40+16:08.1 8814
ROLLAND Thierry#1232Mens Snr16:08.6 8950
HEWETT Noel#1214Mens Snr16:16.8 9051
POPE Richard#1302Mens Snr16:18.6 9152
PEWTRESS Stephen #1280Mens Snr16:24.2 9253
ALEXANDER Aron#1029Mens Jnr16:24.5 9312
BARNES John#304Mens 40+16:25.6 9415
CAPLE Sally#267Womens Jnr16:26.2 956
HARKNESS John#1343Mens Snr16:29.7 9654
VALENA Rex#604Mens 50+16:30.2 971
RENISON Mark#1313Mens Snr16:31.0 9855
LUNN Daniel#1601Mens Snr16:31.8 9956
CARTER Dean#508Mens 50+16:32.9 1002
TURNER Peter#212Mens 40+16:33.7 10116
MCHENRY Andrew#1005Mens Jnr16:33.8 10213
PARSONS Donal #1277Mens Snr16:34.7 10357
WHITE Neville#2208Mens 40+16:34.8 10417
THEOBALD Brendan#1311Mens Snr16:38.6 10558
ACKLAND Nathan#1236Mens Snr16:39.4 10659
SIMMANLE Andre#1364Mens Snr16:40.2 10760
WATCHORN Troy#1296Mens Snr16:41.3 10861
FRANKLIN Brett#1319Mens Snr16:45.7 10962
DUONIS Alex#1250Mens Snr16:45.7 11063
STEER Justin#1320Mens Snr16:46.2 11164
WALKER Justin#1293Mens Snr16:49.5 11265
MOORE Terry#548Mens 50+16:50.0 1133
DALLINGER Andrew#1215Mens Snr16:51.8 11466
LOCKWOOD Peter#1356Mens Snr16:52.4 11567
FLEISNER Paul#502Mens 50+16:54.1 1164
GAREL Michael#1340Mens Snr16:54.4 11768
ES VAN ES Jared#1027Mens Jnr16:54.7 11814
HAYES Albert#1258Mens Snr16:57.2 11969
MUNDAY Christopher#1036Mens Jnr16:57.6 12015
COUSINS Paul #1304Mens Snr16:57.8 12170
BEHRYN John#232Mens 40+16:58.4 12218
DICKSON James#1032Mens Jnr16:59.1 12316
NORTHEAST Simon#242Mens 40+16:59.6 12419
BROWN Matthew#1218Mens Snr17:00.2 12571
PIASENTE Peter#1262Mens Snr17:01.2 12672
SUNDERLAND Peter#208Mens 40+17:02.2 12720
FAIRTHORNE Mark#1200Mens Snr17:02.3 12873
MILLER Todd#1231Mens Snr17:03.6 12974
BRADEN Michael#1219Mens Snr17:04.7 13075
SPEAKMAN David#1369Mens Snr17:07.5 13176
FLEMING Karen#1476Womens Snr17:11.2 13210
TOOGOOS Geoffrey#249Mens 40+17:11.4 13321
CURTIS Brad#1247Mens Snr17:12.7 13477
STUBBINGS Liz#264Womens Jnr17:13.3 1357
RENOUF Burke#1376Mens Snr17:14.6 13678
POULTON Andrew#1361Mens Snr17:16.5 13779
OLDEN Josh#1227Mens Snr17:17.7 13880
DAFF Geoff#207Mens 40+17:18.6 13922
KEADY Richard#509Mens 50+17:18.9 1405
BENNETT Caroline#1475Womens Snr17:20.7 14111
Peter#1266Mens Snr17:20.9 14281
NICHOLSON Peter#614Mens 50+17:23.1 1436
BAXTER Gavin#1358Mens Snr17:25.7 14482
O'SHEA Kelly#273Womens Jnr17:25.8 1458
TANCHEFF Brian#206Mens 40+17:27.6 14623
MCALLISTER Danny#1327Mens Snr17:27.7 14783
MUNDAY Paul#214Mens 40+17:30.4 14824
MOSSE Kim#266Womens Jnr17:30.8 1499
DAVIE Angie#54Womens 40+17:31.0 1501
FERRIES Don#2215Mens 40+17:32.6 15125
CAPLE Eliza#268Womens Jnr17:35.6 15210
CAMERON Jane#51Womens 40+17:35.9 1532
CONSTA Rachel#1471Womens Snr17:37.0 15412
DIXON Ronald#2211Mens 40+17:38.5 15526
ACKLAND Trevor#1235Mens Snr17:38.7 15684
MACAULAY David Barry#1384Mens Snr17:39.1 15785
MANNING David#1326Mens Snr17:39.7 15886
HANSEN Lainie#1433Womens Snr17:40.7 15913
BERESFORD Jason#1398Mens Snr17:41.6 16087
MADDEN Samara#265Womens Jnr17:42.5 16111
RIDDELL Mark #244Mens 40+17:42.7 16227
O'SHEA Esta#256Womens Jnr17:43.8 16312
DUNCAN Barton#1248Mens Snr17:44.2 16488
CLOSE Grant#1317Mens Snr17:44.8 16589
KEOGH Peter#1370Mens Snr17:45.8 16690
COLLINS Chris #1354Mens Snr17:48.6 16791
EVANS David#1252Mens Snr17:50.1 16892
JAMIESON Mark#209Mens 40+17:50.6 16928
JACKSON Katherine#1474Womens Snr17:52.1 17014
JOHNSON Zac#1028Mens Jnr17:52.1 17117
MADDEN Bryan#1323Mens Snr17:52.2 17293
NASCLEF Jean-Pierre#1395Mens Snr17:55.5 17394
TROJAN Nadia#1466Womens Snr17:55.7 17415
DOOM Kathy#1411Womens Snr17:59.6 17516
HEPWORTH Geoff#238Mens 40+17:59.6 17629
MERRET Janelle#272Womens Jnr18:01.2 17713
FORD Lachlan#1022Mens Jnr18:01.2 17818
SHADBOLT Ian#246Mens 40+18:02.5 17930
CREAN Angela#1429Womens Snr18:03.5 18017
SMITH Andrew #1339Mens Snr18:04.9 18195
WILLIAMSON John#2214Mens 40+18:05.7 18231
FLENTJE Kate#260Womens Jnr18:06.5 18314
TAYLOR Graham#213Mens 40+18:06.9 18432
IGLESIAS Philip#1259Mens Snr18:07.0 18596
TROJAN Lara#1467Womens Snr18:07.5 18618
PORTCH Deane#243Mens 40+18:07.5 18733
COX Bill#205Mens 40+18:09.9 18834
REID James#1342Mens Snr18:10.3 18997
GRAHAM Robyn#1502Womens Snr18:15.1 19019
RINGROSE Paul#600Mens 50+18:16.7 1917
CLOSE Danielle#1427Womens Snr18:17.3 19220
CHISHOLM Kevin#1385Mens Snr18:19.5 19398
MARRIOTT Mary#1444Womens Snr18:20.4 19421
WIGNALL Alex#1298Mens Snr18:23.7 19599
ORSINI Raff#2212Mens 40+18:24.2 19635
FLEAY Paula#1480Womens Snr18:24.2 19722
BREWSTER Dale#1020Mens Jnr18:25.1 19819
CUTHERBERTSON Diddy#1410Womens Snr18:25.1 19923
ADES Paul#230Mens 40+18:25.7 20036
ANDERSON Garry#540Mens 50+18:27.3 2018
ROBINSON Peter#1284Mens Snr18:27.4 202100
CARROLL Chris#1245Mens Snr18:28.0 203101
NASH Steven#1213Mens Snr18:28.7 204102
ALLEN David#1315Mens Snr18:28.8 205103
HOSKING Elizabeth#60Womens 40+18:30.3 2063
HACKETT Johnny#1386Mens Snr18:30.6 207104
HACKFORD Claire#1432Womens Snr18:30.8 20824
STERN Kate#1494Womens Snr18:30.8 20925
REDEL Daniel#1332Mens Snr18:33.2 210105
HENKE David#609Mens 50+18:34.3 2119
CHAPMAN Wayne#1222Mens Snr18:35.3 212106
HADFIELD Kylie#1495Womens Snr18:35.3 21326
FUERY Steve#1234Mens Snr18:38.2 214107
SMITH John#1228Mens Snr18:39.4 215108
KENNEDY Paul#1264Mens Snr18:41.6 216109
MILLER Zoe#1482Womens Snr18:43.2 21727
ROOKS David#1208Mens Snr18:46.0 218110
WHITEHOUSE Cara#255Womens Jnr18:47.3 21915
SHEEDY Anthony#1374Mens Snr18:47.3 220111
ADNAM Sian#50Womens 40+18:47.8 2214
DEANS Ian#233Mens 40+18:48.0 22237
KRUMINS Emma#254Womens Jnr18:48.2 22316
ABRAHMSON Gareth#1221Mens Snr18:48.6 224112
DISTON Mort#2213Mens 40+18:48.7 22538
PORT Daryl#1281Mens Snr18:49.3 226113
LEDDIN Peter#309Mens 40+18:50.2 22739
MEDHURST Phil#1375Mens Snr18:50.4 228114
DEBRUYN Emma#259Womens Jnr18:51.8 22917
HILL Ryan#1359Mens Snr18:51.9 230115
SMITH Paul#507Mens 50+18:52.5 23110
CROWCOIT Ian#1379Mens Snr18:53.0 232116
L'ESTRANGE Andrew#1360Mens Snr18:53.5 233117
LEE Daniel#1000Mens Jnr18:54.2 23420
CREAN Peter#543Mens 50+18:54.8 23511
FERGUSON John#1253Mens Snr18:55.1 236118
MAUGER Yvonne#1445Womens Snr18:55.5 23728
TUCKER Eddie#1292Mens Snr18:56.2 238119
WILLIS Andrew#1372Mens Snr18:57.4 239120
STEWART Andrew#1363Mens Snr18:59.1 240121
NICHOLSON Gary#2217Mens 40+19:02.2 24140
JONES Lisa#1493Womens Snr19:02.4 24229
TAYLOR Trent#1026Mens Jnr19:03.2 24321
O'SHANNESSY Peter#2216Mens 40+19:03.9 24441
RANKIN Devon#62Womens 40+19:04.1 2455
IRELAND Marnie#1436Womens Snr19:04.4 24630
O'DONOHUE Mark#1205Mens Snr19:05.1 247122
REID John#613Mens 50+19:06.6 24812
MCALLISTER Gerard#1328Mens Snr19:07.6 249123
PRICE Brodie#1004Mens Jnr19:07.8 25022
MANNING Simon#1203Mens Snr19:09.9 251124
MATTHEWS Bob#503Mens 50+19:10.6 25213
MARSHALL Tim#1268Mens Snr19:11.5 253125
HOPKINS Barry#202Mens 40+19:13.0 25442
WILLIAMSON Davis#1349Mens Snr19:13.8 255126
SAPKIN Robert#245Mens 40+19:15.5 25643
NEILSEN Ben#1204Mens Snr19:16.4 257127
SMITH Jesse#1038Mens Jnr19:17.1 25823
THURGOOD Neville#1223Mens Snr19:18.0 259128
NICHOLSON James#1037Mens Jnr19:18.4 26024
ELLUZ Stephen#1380Mens Snr19:18.7 261129
STOOPMAN Jo#1406Womens Snr19:19.6 26231
MAUGER Jane#1446Womens Snr19:21.6 26332
MILLER Lisa#67Womens 40+19:23.2 2646
BERUNA Joe#1373Mens Snr19:23.7 265130
WILLIAMS Paul#1299Mens Snr19:24.6 266131
BAXTER Darren #1240Mens Snr19:26.5 267132
GRAY Anthony#236Mens 40+19:31.4 26844
MACAULAY Rob #546Mens 50+19:32.8 26914
SCKLUNA Chad#1003Mens Jnr19:33.1 27025
WHELAN Michael#2200Mens 40+19:33.5 27145
LITTLE Nathan #1347Mens Snr19:34.2 272133
KEOGH Peter#1600Mens Snr19:34.9 273134
YUSKO Imogen#257Womens Jnr19:36.1 27418
GRAHAME Bruce#1224Mens Snr19:36.9 275135
WOODERSON Stephen #1301Mens Snr19:38.1 276136
FRANSEN Kable #1255Mens Snr19:38.9 277137
TAYLOR Shelley#1464Womens Snr19:41.0 27833
FLEMING Graham#1201Mens Snr19:41.5 279138
ELLIS Michael#544Mens 50+19:42.1 28015
MURPHY Vanessa#251Womens Jnr19:46.1 28119
BREHENY Katie#1499Womens Snr19:50.1 28234
RIDDELL Amanda#269Womens Jnr19:51.6 28320
LOWE Erin#1443Womens Snr19:54.8 28435
DEVLYN Shane#234Mens 40+19:55.4 28546
TAYLOR Georgie#1465Womens Snr19:55.4 28636
KENT Emma#1440Womens Snr19:55.6 28737
RENISON Rick#607Mens 50+19:55.9 28816
FISHER Simon #1348Mens Snr19:55.9 289139
DALLINGER Dean#1306Mens Snr20:00.5 290140
FREEMAN Richard#1256Mens Snr20:02.0 291141
STEVENS Chris#1309Mens Snr20:02.8 292142
MEAGHER Kerryn#270Womens Jnr20:03.1 29321
KOSTER William#1031Mens Jnr20:07.2 29426
BEISCHER David#1381Mens Snr20:12.9 295143
TREWHELLA Anne#1489Womens Snr20:13.5 29638
PARKER Michael#1276Mens Snr20:15.1 297144
STANDFIELD Brendan#1288Mens Snr20:18.0 298145
HURLEY Monica#1481Womens Snr20:19.1 29939
BURROWS Karen#1403Womens Snr20:21.5 30040
EVANS Kym#1478Womens Snr20:22.5 30141
JEEVES Sheree#1437Womens Snr20:22.7 30242
DOUBE Jeff#616Mens 50+20:23.2 30317
JEEVES Lori#1438Womens Snr20:23.9 30443
SIMMANLE Natalie#1497Womens Snr20:25.8 30544
NICHOLSON Mary#15Womens 50+20:26.4 3061
ROSSITER Jonathon#1210Mens Snr20:26.7 307146
CLAIRKE Shaun#1002Mens Jnr20:27.3 30827
SMITH Ken#247Mens 40+20:28.6 30947
MARTIN Johnny#1269Mens Snr20:29.3 310147
NEWTON-HOARE Bonnie#1454Womens Snr20:31.1 31145
JOHNSTONE Brian#216Mens 40+20:31.7 31248
CARIAS Joe#200Mens 40+20:31.8 31349
BRADEN Heather#1405Womens Snr20:34.2 31446
ROBERTS Mark#301Mens 40+20:35.9 31550
CHAMBERS Paula#1486Womens Snr20:36.1 31647
SALERNO Peter#1331Mens Snr20:36.4 317148
SHERRARD Philip#1286Mens Snr20:39.1 318149
HOOPER Mick#239Mens 40+20:39.6 31951
SHEPPARD Sam#1335Mens Snr20:41.6 320150
MUJICA Venessa#1453Womens Snr20:44.5 32148
ESNOUF John#545Mens 50+20:45.2 32218
BOURKE Peter#1351Mens Snr20:45.7 323151
THOMAS Brad#1290Mens Snr20:46.2 324152
O'SULLIVAN Travis#1206Mens Snr20:47.5 325153
JOHNSON Gillian#1498Womens Snr20:48.2 32649
BERGER Wendy#1508Womens Snr20:49.7 32750
HADFIELD Travis#1357Mens Snr20:52.0 328154
MILLER Craig#1273Mens Snr20:56.8 329155
MCCARTHY Barry#1270Mens Snr20:58.5 330156
DOWNING Mel#610Mens 50+20:59.3 33119
RENISON Belinda#1477Womens Snr21:00.4 33251
MACLARN Lynne#1484Womens Snr21:00.7 33352
WILLIAMS Ian#1300Mens Snr21:03.9 334157
HOSKING Robert#615Mens 50+21:04.6 33520
LOCKWOOD Andrea#1488Womens Snr21:05.0 33653
BREWIN Cathy#1409Womens Snr21:05.3 33754
TODD Alycia#1407Womens Snr21:06.9 33855
EVERETT Glenn#235Mens 40+21:07.2 33952
MCPHATE Claire#66Womens 40+21:09.8 3407
PASZTALENIEC David#1278Mens Snr21:10.1 341158
LANCASHIRE Terry#302Mens 40+21:13.8 34253
O'BRIEN Nathaniel#1225Mens Snr21:14.6 343159
LUCAS Sean#1314Mens Snr21:15.6 344160
LENZ Chris#2206Mens 40+21:15.9 34554
PIENING John#1329Mens Snr21:16.3 346161
WILLIAMS Steve#2201Mens 40+21:16.5 34755
WRIGHT Phil#222Mens 40+21:18.5 34856
KRASSAY Derek#1312Mens Snr21:21.1 349162
HERRINGTON Suzie#1487Womens Snr21:22.9 35056
ZIMMERMAN Kirrily#1470Womens Snr21:24.0 35157
BULL Lyndall#1485Womens Snr21:24.5 35258
FLANNERY Andrew#1303Mens Snr21:25.5 353163
BRIGLIA Tony#541Mens 50+21:25.9 35421
TREASURE Greg#603Mens 50+21:31.1 35522
O'HARA Cameron#1275Mens Snr21:32.3 356164
JOHNSON Bruce#1263Mens Snr21:32.9 357165
BURGESS Sarah#1426Womens Snr21:34.7 35859
MILROY Jennelle#1492Womens Snr21:38.5 35960
MILLER Claire#65Womens 40+21:42.4 3608
WALLACE Alex#1294Mens Snr21:48.6 361166
GRAHAM Rob #1362Mens Snr21:51.1 362167
BOWTELL Cathy#1501Womens Snr21:56.6 36361
BRADY Graeme#308Mens 40+21:59.2 36457
PRZYWARA Peter#2209Mens 40+22:00.9 36558
JOHNSTON Robyn#61Womens 40+22:03.3 3669
CAPLE Anna#1505Womens Snr22:05.3 36762
MCDONALD Bruce#1271Mens Snr22:06.8 368168
PORTER Michael#2210Mens 40+22:09.3 36959
FYFE Scott#211Mens 40+22:11.1 37060
LOVE Brooke#252Womens Jnr22:12.0 37122
BLOMBERY Emily#1424Womens Snr22:15.0 37263
REID Wayne#1387Mens Snr22:16.8 373169
HOLT Marcus#220Mens 40+22:19.4 37461
DAVEY Malcolm#346Mens 40+22:20.7 37562
RODRIQUEZ Kelly#1462Womens Snr22:22.6 37664
GREGORY Aaron#1325Mens Snr22:23.1 377170
HARRIS Sarah#1509Womens Snr22:29.0 37865
FERRIES Cody#1035Mens Jnr22:31.2 37928
WEBB David#1336Mens Snr22:31.5 380171
SYME Michael#248Mens 40+22:33.9 38163
SARAGHI Gissell#63Womens 40+22:36.6 38210
WEBB Simon#1297Mens Snr22:41.8 383172
O'SULLIVAN Janine#1400Womens Snr22:42.0 38466
REDFERN Lloyd#611Mens 50+22:46.1 38523
CURTIS Susan#1430Womens Snr22:54.1 38667
O'DONNELL Bryn#1216Mens Snr22:54.2 387173
KNIGHT Stephen #240Mens 40+22:54.2 38864
OGIER Dale#1230Mens Snr23:01.8 389174
WEIR Warren#510Mens 50+23:03.6 39024
HALLIDAY Craig#237Mens 40+23:07.5 39165
TUCKER Simone#1468Womens Snr23:10.4 39268
DALLINGER Brian#501Mens 50+23:13.9 39325
DALLINGER Kevin#2205Mens 40+23:13.9 39466
MCPHATE Peter#1396Mens Snr23:15.1 395175
KELLY John#2202Mens 40+23:23.8 39667
ADES Donna#57Womens 40+23:33.7 39711
GREENHALGH Paul#1202Mens Snr23:42.2 398176
MCCARTHY Trish#53Womens 40+23:45.4 39912
KOSTER Cheryl#1479Womens Snr23:47.9 40069
MUNRO Tony#203Mens 40+23:55.9 40168
DEVINE Shelley#1510Womens Snr23:58.0 40270
LIUZZI Simon#1365Mens Snr23:59.0 403177
MCDONALD Julie#1448Womens Snr24:05.6 40471
KNOWLES Rodney#1265Mens Snr24:06.5 405178
SPITS Scott #1287Mens Snr24:08.6 406179
WHITE Simone#1473Womens Snr24:13.2 40772
POST Karen#1458Womens Snr24:13.8 40873
COLEMAN Mark#221Mens 40+24:22.6 40969
CADD Jannelle#271Womens Jnr24:31.5 41023
RENTON Douglas#307Mens 40+24:35.8 41170
PECK Andrew#1279Mens Snr24:38.2 412180
PAPAC Emil#1305Mens Snr24:40.4 413181
NICHOLSON Ron#549Mens 50+24:43.3 41426
FARBOTHER Edward#608Mens 50+24:43.5 41527
BOYCE Jason#1243Mens Snr24:44.3 416182
WISKEN Kylie#1491Womens Snr24:45.9 41774
MCCARTNEY Jennifer#1504Womens Snr24:49.2 41875
SCOTT Casandra#1503Womens Snr24:49.5 41976
KEWMING Robyn#52Womens 40+24:53.8 42013
PRICE Amanda#1408Womens Snr25:01.2 42177
MEHEGAN Jenelle#1450Womens Snr25:02.8 42278
ANTHONY Michael#1237Mens Snr25:04.1 423183
BURNHAM Robert#606Mens 50+25:09.2 42428
WILLEMS Lisa#1500Womens Snr25:13.5 42579
DAISCOLL Ben#1021Mens Jnr25:17.6 42629
KIRSCH Simone#1441Womens Snr25:19.6 42780
RAYMOND Jacqui#1459Womens Snr25:19.8 42881
BLACK Melanie#1401Womens Snr25:25.8 42982
WALL Bradley#1368Mens Snr25:31.2 430184
MCIVER Bruce#1272Mens Snr25:34.3 431185
RICHARDS Todd#1341Mens Snr25:35.9 432186
SPEAKMAN Jan #14Womens 50+25:43.3 4332
BROWN Judith#64Womens 40+25:48.0 43414
RIDDELL Janet#1461Womens Snr25:57.6 43583
LANE Bernadette#1442Womens Snr25:59.3 43684
COMBRIDGE Allison#1428Womens Snr26:05.7 43785
MCDONALD Kerry#1447Womens Snr26:10.9 43886
OLCZAK Sally#1457Womens Snr26:15.2 43987
BEWLEY Rikki#11Womens 50+26:19.4 4403
NEVILLE Simon#1371Mens Snr26:42.6 441187
STEVENS Kevin#602Mens 50+27:11.4 44229
KONTOGOURIS Earlene#12Womens 50+27:15.7 4434
BOXSHALL Sharon#1472Womens Snr27:57.6 44488
CAMENZOLI Maria#1404Womens Snr28:44.0 44589
BOXER Bruce#500Mens 50+30:10.1 44630
HOFFMAN Dave#612Mens 50+31:32.0 44731
PARKINSON Cindy#1490Womens Snr31:34.5 44890
SAGE Albert#506Mens 50+34:17.6 44932
WHITE Donald#605Mens 50+34:50.2 45033
SHEPPARD Steven#1333Mens Snr35:04.3 451188
BAXTER Tania#1496Womens Snr41:59.8 45291
MITCHELL Jill#13Womens 50+47:24.5 4535
MAUGER Norman#547DNF--
HEMINGWAY Cindy#1434DNF--
ELDRED Robyn#1402DNF--